Year,Month,Day,Hour,Minute,Value (Times are PST for temperature in C)
2013,08,17,00,00,16.80
2013,08,17,00,01,16.80
2013,08,17,00,02,16.80
2013,08,17,00,03,16.80
2013,08,17,00,04,16.80
2013,08,17,00,05,16.80
2013,08,17,00,06,16.90
2013,08,17,00,07,16.90
2013,08,17,00,08,16.90
2013,08,17,00,09,16.90
2013,08,17,00,10,16.90
2013,08,17,00,11,16.90
2013,08,17,00,12,16.90
2013,08,17,00,13,17.00
2013,08,17,00,14,17.00
2013,08,17,00,15,17.00
2013,08,17,00,16,17.00
2013,08,17,00,17,17.00
2013,08,17,00,18,17.00
2013,08,17,00,19,17.00
2013,08,17,00,20,16.90
2013,08,17,00,21,16.90
2013,08,17,00,22,16.90
2013,08,17,00,23,16.80
2013,08,17,00,24,16.80
2013,08,17,00,25,16.70
2013,08,17,00,26,16.60
2013,08,17,00,27,16.60
2013,08,17,00,28,16.50
2013,08,17,00,29,16.50
2013,08,17,00,30,16.40
2013,08,17,00,31,16.40
2013,08,17,00,32,16.30
2013,08,17,00,33,16.30
2013,08,17,00,34,16.20
2013,08,17,00,35,16.20
2013,08,17,00,36,16.20
2013,08,17,00,37,16.10
2013,08,17,00,38,16.10
2013,08,17,00,39,16.00
2013,08,17,00,40,16.00
2013,08,17,00,41,15.90
2013,08,17,00,42,15.90
2013,08,17,00,43,15.90
2013,08,17,00,44,15.90
2013,08,17,00,45,15.90
2013,08,17,00,46,15.80
2013,08,17,00,47,15.80
2013,08,17,00,48,15.80
2013,08,17,00,49,15.80
2013,08,17,00,50,15.80
2013,08,17,00,51,15.80
2013,08,17,00,52,15.80
2013,08,17,00,53,15.80
2013,08,17,00,54,15.80
2013,08,17,00,55,15.80
2013,08,17,00,56,15.80
2013,08,17,00,57,15.80
2013,08,17,00,58,15.80
2013,08,17,00,59,15.80
2013,08,17,01,00,15.80
2013,08,17,01,01,15.70
2013,08,17,01,02,15.70
2013,08,17,01,03,15.70
2013,08,17,01,04,15.70
2013,08,17,01,05,15.70
2013,08,17,01,06,15.70
2013,08,17,01,07,15.70
2013,08,17,01,08,15.70
2013,08,17,01,09,15.70
2013,08,17,01,10,15.70
2013,08,17,01,11,15.70
2013,08,17,01,12,15.70
2013,08,17,01,13,15.70
2013,08,17,01,14,15.70
2013,08,17,01,15,15.70
2013,08,17,01,16,15.70
2013,08,17,01,17,15.70
2013,08,17,01,18,15.70
2013,08,17,01,19,15.70
2013,08,17,01,20,15.80
2013,08,17,01,21,15.80
2013,08,17,01,22,15.80
2013,08,17,01,23,15.80
2013,08,17,01,24,15.80
2013,08,17,01,25,15.70
2013,08,17,01,26,15.70
2013,08,17,01,27,15.70
2013,08,17,01,28,15.70
2013,08,17,01,29,15.70
2013,08,17,01,30,15.70
2013,08,17,01,31,15.70
2013,08,17,01,32,15.70
2013,08,17,01,33,15.70
2013,08,17,01,34,15.70
2013,08,17,01,35,15.70
2013,08,17,01,36,15.70
2013,08,17,01,37,15.70
2013,08,17,01,38,15.70
2013,08,17,01,39,15.70
2013,08,17,01,40,15.70
2013,08,17,01,41,15.70
2013,08,17,01,42,15.80
2013,08,17,01,43,15.80
2013,08,17,01,44,15.80
2013,08,17,01,45,15.80
2013,08,17,01,46,15.80
2013,08,17,01,47,15.80
2013,08,17,01,48,15.80
2013,08,17,01,49,15.80
2013,08,17,01,50,15.80
2013,08,17,01,51,15.90
2013,08,17,01,52,15.90
2013,08,17,01,53,15.90
2013,08,17,01,54,15.90
2013,08,17,01,55,15.90
2013,08,17,01,56,15.90
2013,08,17,01,57,15.90
2013,08,17,01,58,15.90
2013,08,17,01,59,15.90
2013,08,17,02,00,16.00
2013,08,17,02,01,16.00
2013,08,17,02,02,16.00
2013,08,17,02,03,16.00
2013,08,17,02,04,16.00
2013,08,17,02,05,16.00
2013,08,17,02,06,16.00
2013,08,17,02,07,16.00
2013,08,17,02,08,15.90
2013,08,17,02,09,15.90
2013,08,17,02,10,15.90
2013,08,17,02,11,15.90
2013,08,17,02,12,15.90
2013,08,17,02,13,15.90
2013,08,17,02,14,15.90
2013,08,17,02,15,15.90
2013,08,17,02,16,15.90
2013,08,17,02,17,15.90
2013,08,17,02,18,15.90
2013,08,17,02,19,15.90
2013,08,17,02,20,15.90
2013,08,17,02,21,15.90
2013,08,17,02,22,15.90
2013,08,17,02,23,15.90
2013,08,17,02,24,15.90
2013,08,17,02,25,15.90
2013,08,17,02,26,15.90
2013,08,17,02,27,15.90
2013,08,17,02,28,15.90
2013,08,17,02,29,15.90
2013,08,17,02,30,15.90
2013,08,17,02,31,15.90
2013,08,17,02,32,15.90
2013,08,17,02,33,15.90
2013,08,17,02,34,15.90
2013,08,17,02,35,15.90
2013,08,17,02,36,15.90
2013,08,17,02,37,15.90
2013,08,17,02,38,15.90
2013,08,17,02,39,15.90
2013,08,17,02,40,15.90
2013,08,17,02,41,16.00
2013,08,17,02,42,16.00
2013,08,17,02,43,16.00
2013,08,17,02,44,16.00
2013,08,17,02,45,16.00
2013,08,17,02,46,16.00
2013,08,17,02,47,16.00
2013,08,17,02,48,16.00
2013,08,17,02,49,16.00
2013,08,17,02,50,16.00
2013,08,17,02,51,16.00
2013,08,17,02,52,16.00
2013,08,17,02,53,16.00
2013,08,17,02,54,16.00
2013,08,17,02,55,16.00
2013,08,17,02,56,16.10
2013,08,17,02,57,16.10
2013,08,17,02,58,16.10
2013,08,17,02,59,16.10
2013,08,17,03,00,16.10
2013,08,17,03,01,16.10
2013,08,17,03,02,16.10
2013,08,17,03,03,16.10
2013,08,17,03,04,16.10
2013,08,17,03,05,16.10
2013,08,17,03,06,16.10
2013,08,17,03,07,16.10
2013,08,17,03,08,16.10
2013,08,17,03,09,16.10
2013,08,17,03,10,16.00
2013,08,17,03,11,16.00
2013,08,17,03,12,16.00
2013,08,17,03,13,16.00
2013,08,17,03,14,15.90
2013,08,17,03,15,15.90
2013,08,17,03,16,15.90
2013,08,17,03,17,15.90
2013,08,17,03,18,15.90
2013,08,17,03,19,15.90
2013,08,17,03,20,15.90
2013,08,17,03,21,15.90
2013,08,17,03,22,15.90
2013,08,17,03,23,15.90
2013,08,17,03,24,15.90
2013,08,17,03,25,15.90
2013,08,17,03,26,15.90
2013,08,17,03,27,15.80
2013,08,17,03,28,15.80
2013,08,17,03,29,15.80
2013,08,17,03,30,15.80
2013,08,17,03,31,15.80
2013,08,17,03,32,15.80
2013,08,17,03,33,15.80
2013,08,17,03,34,15.80
2013,08,17,03,35,15.70
2013,08,17,03,36,15.70
2013,08,17,03,37,15.70
2013,08,17,03,38,15.70
2013,08,17,03,39,15.70
2013,08,17,03,40,15.80
2013,08,17,03,41,15.80
2013,08,17,03,42,16.00
2013,08,17,03,43,16.20
2013,08,17,03,44,16.30
2013,08,17,03,45,16.50
2013,08,17,03,46,16.70
2013,08,17,03,47,16.80
2013,08,17,03,48,17.00
2013,08,17,03,49,17.10
2013,08,17,03,50,17.20
2013,08,17,03,51,17.30
2013,08,17,03,52,17.40
2013,08,17,03,53,17.60
2013,08,17,03,54,17.70
2013,08,17,03,55,17.80
2013,08,17,03,56,17.90
2013,08,17,03,57,18.00
2013,08,17,03,58,18.10
2013,08,17,03,59,18.20
2013,08,17,04,00,18.20
2013,08,17,04,01,18.20
2013,08,17,04,02,18.30
2013,08,17,04,03,18.30
2013,08,17,04,04,18.30
2013,08,17,04,05,18.40
2013,08,17,04,06,18.40
2013,08,17,04,07,18.40
2013,08,17,04,08,18.40
2013,08,17,04,09,18.40
2013,08,17,04,10,18.40
2013,08,17,04,11,18.40
2013,08,17,04,12,18.40
2013,08,17,04,13,18.30
2013,08,17,04,14,18.30
2013,08,17,04,15,18.30
2013,08,17,04,16,18.20
2013,08,17,04,17,18.20
2013,08,17,04,18,18.20
2013,08,17,04,19,18.20
2013,08,17,04,20,18.10
2013,08,17,04,21,18.10
2013,08,17,04,22,18.10
2013,08,17,04,23,18.10
2013,08,17,04,24,18.10
2013,08,17,04,25,18.10
2013,08,17,04,26,18.00
2013,08,17,04,27,18.00
2013,08,17,04,28,18.00
2013,08,17,04,29,18.00
2013,08,17,04,30,18.00
2013,08,17,04,31,18.00
2013,08,17,04,32,18.00
2013,08,17,04,33,18.00
2013,08,17,04,34,17.90
2013,08,17,04,35,17.90
2013,08,17,04,36,18.00
2013,08,17,04,37,17.90
2013,08,17,04,38,17.90
2013,08,17,04,39,17.90
2013,08,17,04,40,17.90
2013,08,17,04,41,17.90
2013,08,17,04,42,18.00
2013,08,17,04,43,18.00
2013,08,17,04,44,18.00
2013,08,17,04,45,18.00
2013,08,17,04,46,18.00
2013,08,17,04,47,18.00
2013,08,17,04,48,18.00
2013,08,17,04,49,18.10
2013,08,17,04,50,18.10
2013,08,17,04,51,18.10
2013,08,17,04,52,18.10
2013,08,17,04,53,18.10
2013,08,17,04,54,18.10
2013,08,17,04,55,18.10
2013,08,17,04,56,18.10
2013,08,17,04,57,18.20
2013,08,17,04,58,18.20
2013,08,17,04,59,18.20
2013,08,17,05,00,18.20
2013,08,17,05,01,18.20
2013,08,17,05,02,18.20
2013,08,17,05,03,18.20
2013,08,17,05,04,18.30
2013,08,17,05,05,18.30
2013,08,17,05,06,18.30
2013,08,17,05,07,18.30
2013,08,17,05,08,18.30
2013,08,17,05,09,18.30
2013,08,17,05,10,18.40
2013,08,17,05,11,18.40
2013,08,17,05,12,18.30
2013,08,17,05,13,18.30
2013,08,17,05,14,18.30
2013,08,17,05,15,18.30
2013,08,17,05,16,18.30
2013,08,17,05,17,18.30
2013,08,17,05,18,18.30
2013,08,17,05,19,18.30
2013,08,17,05,20,18.30
2013,08,17,05,21,18.30
2013,08,17,05,22,18.30
2013,08,17,05,23,18.30
2013,08,17,05,24,18.30
2013,08,17,05,25,18.20
2013,08,17,05,26,18.20
2013,08,17,05,27,18.20
2013,08,17,05,28,18.20
2013,08,17,05,29,18.20
2013,08,17,05,30,18.20
2013,08,17,05,31,18.20
2013,08,17,05,32,18.20
2013,08,17,05,33,18.20
2013,08,17,05,34,18.30
2013,08,17,05,35,18.30
2013,08,17,05,36,18.30
2013,08,17,05,37,18.30
2013,08,17,05,38,18.30
2013,08,17,05,39,18.30
2013,08,17,05,40,18.30
2013,08,17,05,41,18.30
2013,08,17,05,42,18.30
2013,08,17,05,43,18.30
2013,08,17,05,44,18.40
2013,08,17,05,45,18.40
2013,08,17,05,46,18.40
2013,08,17,05,47,18.40
2013,08,17,05,48,18.40
2013,08,17,05,49,18.40
2013,08,17,05,50,18.40
2013,08,17,05,51,18.40
2013,08,17,05,52,18.40
2013,08,17,05,53,18.40
2013,08,17,05,54,18.40
2013,08,17,05,55,18.40
2013,08,17,05,56,18.40
2013,08,17,05,57,18.40
2013,08,17,05,58,18.40
2013,08,17,05,59,18.40
2013,08,17,06,00,18.40
2013,08,17,06,01,18.40
2013,08,17,06,02,18.40
2013,08,17,06,03,18.30
2013,08,17,06,04,18.30
2013,08,17,06,05,18.30
2013,08,17,06,06,18.30
2013,08,17,06,07,18.30
2013,08,17,06,08,18.30
2013,08,17,06,09,18.30
2013,08,17,06,10,18.30
2013,08,17,06,11,18.30
2013,08,17,06,12,18.30
2013,08,17,06,13,18.30
2013,08,17,06,14,18.30
2013,08,17,06,15,18.20
2013,08,17,06,16,18.20
2013,08,17,06,17,18.20
2013,08,17,06,18,18.20
2013,08,17,06,19,18.20
2013,08,17,06,20,18.20
2013,08,17,06,21,18.20
2013,08,17,06,22,18.30
2013,08,17,06,23,18.30
2013,08,17,06,24,18.30
2013,08,17,06,25,18.30
2013,08,17,06,26,18.30
2013,08,17,06,27,18.40
2013,08,17,06,28,18.40
2013,08,17,06,29,18.40
2013,08,17,06,30,18.40
2013,08,17,06,31,18.50
2013,08,17,06,32,18.50
2013,08,17,06,33,18.50
2013,08,17,06,34,18.50
2013,08,17,06,35,18.60
2013,08,17,06,36,18.60
2013,08,17,06,37,18.60
2013,08,17,06,38,18.60
2013,08,17,06,39,18.60
2013,08,17,06,40,18.60
2013,08,17,06,41,18.60
2013,08,17,06,42,18.60
2013,08,17,06,43,18.60
2013,08,17,06,44,18.60
2013,08,17,06,45,18.60
2013,08,17,06,46,18.60
2013,08,17,06,47,18.60
2013,08,17,06,48,18.60
2013,08,17,06,49,18.60
2013,08,17,06,50,18.60
2013,08,17,06,51,18.60
2013,08,17,06,52,18.60
2013,08,17,06,53,18.60
2013,08,17,06,54,18.50
2013,08,17,06,55,18.50
2013,08,17,06,56,18.50
2013,08,17,06,57,18.50
2013,08,17,06,58,18.50
2013,08,17,06,59,18.50
2013,08,17,07,00,18.50
2013,08,17,07,01,18.40
2013,08,17,07,02,18.40
2013,08,17,07,03,18.40
2013,08,17,07,04,18.40
2013,08,17,07,05,18.40
2013,08,17,07,06,18.40
2013,08,17,07,07,18.40
2013,08,17,07,08,18.40
2013,08,17,07,09,18.40
2013,08,17,07,10,18.30
2013,08,17,07,11,18.30
2013,08,17,07,12,18.30
2013,08,17,07,13,18.30
2013,08,17,07,14,18.30
2013,08,17,07,15,18.30
2013,08,17,07,16,18.30
2013,08,17,07,17,18.30
2013,08,17,07,18,18.30
2013,08,17,07,19,18.30
2013,08,17,07,20,18.30
2013,08,17,07,21,18.30
2013,08,17,07,22,18.30
2013,08,17,07,23,18.30
2013,08,17,07,24,18.30
2013,08,17,07,25,18.30
2013,08,17,07,26,18.30
2013,08,17,07,27,18.30
2013,08,17,07,28,18.30
2013,08,17,07,29,18.30
2013,08,17,07,30,18.40
2013,08,17,07,31,18.40
2013,08,17,07,32,18.40
2013,08,17,07,33,18.40
2013,08,17,07,34,18.40
2013,08,17,07,35,18.40
2013,08,17,07,36,18.40
2013,08,17,07,37,18.50
2013,08,17,07,38,18.50
2013,08,17,07,39,18.50
2013,08,17,07,40,18.50
2013,08,17,07,41,18.50
2013,08,17,07,42,18.50
2013,08,17,07,43,18.50
2013,08,17,07,44,18.50
2013,08,17,07,45,18.50
2013,08,17,07,46,18.50
2013,08,17,07,47,18.50
2013,08,17,07,48,18.60
2013,08,17,07,49,18.50
2013,08,17,07,50,18.60
2013,08,17,07,51,18.60
2013,08,17,07,52,18.60
2013,08,17,07,53,18.60
2013,08,17,07,54,18.60
2013,08,17,07,55,18.60
2013,08,17,07,56,18.60
2013,08,17,07,57,18.60
2013,08,17,07,58,18.70
2013,08,17,07,59,18.70
2013,08,17,08,00,18.70
2013,08,17,08,01,18.70
2013,08,17,08,02,18.70
2013,08,17,08,03,18.70
2013,08,17,08,04,18.70
2013,08,17,08,05,18.70
2013,08,17,08,06,18.70
2013,08,17,08,07,18.70
2013,08,17,08,08,18.70
2013,08,17,08,09,18.80
2013,08,17,08,10,18.80
2013,08,17,08,11,18.80
2013,08,17,08,12,18.80
2013,08,17,08,13,18.80
2013,08,17,08,14,18.80
2013,08,17,08,15,18.80
2013,08,17,08,16,18.80
2013,08,17,08,17,18.80
2013,08,17,08,18,18.80
2013,08,17,08,19,18.80
2013,08,17,08,20,18.80
2013,08,17,08,21,18.90
2013,08,17,08,22,18.90
2013,08,17,08,23,18.90
2013,08,17,08,24,18.90
2013,08,17,08,25,18.90
2013,08,17,08,26,19.00
2013,08,17,08,27,19.00
2013,08,17,08,28,19.00
2013,08,17,08,29,19.10
2013,08,17,08,30,19.10
2013,08,17,08,31,19.10
2013,08,17,08,32,19.10
2013,08,17,08,33,19.20
2013,08,17,08,34,19.20
2013,08,17,08,35,19.20
2013,08,17,08,36,19.20
2013,08,17,08,37,19.20
2013,08,17,08,38,19.30
2013,08,17,08,39,19.30
2013,08,17,08,40,19.30
2013,08,17,08,41,19.30
2013,08,17,08,42,19.40
2013,08,17,08,43,19.40
2013,08,17,08,44,19.50
2013,08,17,08,45,19.50
2013,08,17,08,46,19.50
2013,08,17,08,47,19.60
2013,08,17,08,48,19.60
2013,08,17,08,49,19.60
2013,08,17,08,50,19.60
2013,08,17,08,51,19.60
2013,08,17,08,52,19.60
2013,08,17,08,53,19.60
2013,08,17,08,54,19.60
2013,08,17,08,55,19.70
2013,08,17,08,56,19.70
2013,08,17,08,57,19.70
2013,08,17,08,58,19.70
2013,08,17,08,59,19.70
2013,08,17,09,00,19.70
2013,08,17,09,01,19.70
2013,08,17,09,02,19.70
2013,08,17,09,03,19.70
2013,08,17,09,04,19.70
2013,08,17,09,05,19.60
2013,08,17,09,06,19.60
2013,08,17,09,07,19.60
2013,08,17,09,08,19.60
2013,08,17,09,09,19.60
2013,08,17,09,10,19.60
2013,08,17,09,11,19.60
2013,08,17,09,12,19.60
2013,08,17,09,13,19.60
2013,08,17,09,14,19.60
2013,08,17,09,15,19.60
2013,08,17,09,16,19.60
2013,08,17,09,17,19.60
2013,08,17,09,18,19.70
2013,08,17,09,19,19.70
2013,08,17,09,20,19.70
2013,08,17,09,21,19.70
2013,08,17,09,22,19.70
2013,08,17,09,23,19.70
2013,08,17,09,24,19.70
2013,08,17,09,25,19.70
2013,08,17,09,26,19.70
2013,08,17,09,27,19.70
2013,08,17,09,28,19.70
2013,08,17,09,29,19.70
2013,08,17,09,30,19.80
2013,08,17,09,31,19.80
2013,08,17,09,32,19.80
2013,08,17,09,33,19.80
2013,08,17,09,34,19.80
2013,08,17,09,35,19.80
2013,08,17,09,36,19.80
2013,08,17,09,37,19.80
2013,08,17,09,38,19.90
2013,08,17,09,39,19.80
2013,08,17,09,40,19.80
2013,08,17,09,41,19.80
2013,08,17,09,42,19.80
2013,08,17,09,43,19.80
2013,08,17,09,44,19.70
2013,08,17,09,45,19.70
2013,08,17,09,46,19.70
2013,08,17,09,47,19.70
2013,08,17,09,48,19.70
2013,08,17,09,49,19.70
2013,08,17,09,50,19.70
2013,08,17,09,51,19.70
2013,08,17,09,52,19.70
2013,08,17,09,53,19.60
2013,08,17,09,54,19.60
2013,08,17,09,55,19.60
2013,08,17,09,56,19.60
2013,08,17,09,57,19.60
2013,08,17,09,58,19.60
2013,08,17,09,59,19.50
2013,08,17,10,00,19.50
2013,08,17,10,01,19.50
2013,08,17,10,02,19.40
2013,08,17,10,03,19.40
2013,08,17,10,04,19.50
2013,08,17,10,05,19.40
2013,08,17,10,06,19.50
2013,08,17,10,07,19.50
2013,08,17,10,08,19.50
2013,08,17,10,09,19.50
2013,08,17,10,10,19.50
2013,08,17,10,11,19.50
2013,08,17,10,12,19.40
2013,08,17,10,13,19.40
2013,08,17,10,14,19.40
2013,08,17,10,15,19.40
2013,08,17,10,16,19.30
2013,08,17,10,17,19.30
2013,08,17,10,18,19.30
2013,08,17,10,19,19.40
2013,08,17,10,20,19.40
2013,08,17,10,21,19.40
2013,08,17,10,22,19.40
2013,08,17,10,23,19.40
2013,08,17,10,24,19.50
2013,08,17,10,25,19.50
2013,08,17,10,26,19.60
2013,08,17,10,27,19.60
2013,08,17,10,28,19.60
2013,08,17,10,29,19.70
2013,08,17,10,30,19.70
2013,08,17,10,31,19.70
2013,08,17,10,32,19.80
2013,08,17,10,33,19.80
2013,08,17,10,34,19.70
2013,08,17,10,35,19.70
2013,08,17,10,36,19.70
2013,08,17,10,37,19.70
2013,08,17,10,38,19.70
2013,08,17,10,39,19.70
2013,08,17,10,40,19.70
2013,08,17,10,41,19.80
2013,08,17,10,42,19.80
2013,08,17,10,43,19.80
2013,08,17,10,44,19.80
2013,08,17,10,45,19.80
2013,08,17,10,46,19.90
2013,08,17,10,47,19.90
2013,08,17,10,48,19.90
2013,08,17,10,49,20.00
2013,08,17,10,50,20.00
2013,08,17,10,51,20.00
2013,08,17,10,52,20.00
2013,08,17,10,53,19.90
2013,08,17,10,54,19.90
2013,08,17,10,55,19.90
2013,08,17,10,56,19.90
2013,08,17,10,57,19.90
2013,08,17,10,58,19.90
2013,08,17,10,59,19.90
2013,08,17,11,00,19.90
2013,08,17,11,01,19.90
2013,08,17,11,02,20.00
2013,08,17,11,03,20.00
2013,08,17,11,04,20.10
2013,08,17,11,05,20.10
2013,08,17,11,06,20.10
2013,08,17,11,07,20.20
2013,08,17,11,08,20.20
2013,08,17,11,09,20.30
2013,08,17,11,10,20.30
2013,08,17,11,11,20.30
2013,08,17,11,12,20.40
2013,08,17,11,13,20.40
2013,08,17,11,14,20.50
2013,08,17,11,15,20.50
2013,08,17,11,16,20.60
2013,08,17,11,17,20.60
2013,08,17,11,18,20.60
2013,08,17,11,19,20.50
2013,08,17,11,20,20.40
2013,08,17,11,21,20.40
2013,08,17,11,22,20.40
2013,08,17,11,23,20.40
2013,08,17,11,24,20.40
2013,08,17,11,25,20.40
2013,08,17,11,26,20.40
2013,08,17,11,27,20.40
2013,08,17,11,28,20.50
2013,08,17,11,29,20.50
2013,08,17,11,30,20.60
2013,08,17,11,31,20.60
2013,08,17,11,32,20.50
2013,08,17,11,33,20.50
2013,08,17,11,34,20.40
2013,08,17,11,35,20.40
2013,08,17,11,36,20.50
2013,08,17,11,37,20.50
2013,08,17,11,38,20.50
2013,08,17,11,39,20.50
2013,08,17,11,40,20.50
2013,08,17,11,41,20.60
2013,08,17,11,42,20.60
2013,08,17,11,43,20.60
2013,08,17,11,44,20.70
2013,08,17,11,45,20.70
2013,08,17,11,46,20.70
2013,08,17,11,47,20.70
2013,08,17,11,48,20.70
2013,08,17,11,49,20.70
2013,08,17,11,50,20.70
2013,08,17,11,51,20.70
2013,08,17,11,52,20.70
2013,08,17,11,53,20.80
2013,08,17,11,54,20.80
2013,08,17,11,55,20.90
2013,08,17,11,56,20.90
2013,08,17,11,57,20.90
2013,08,17,11,58,21.00
2013,08,17,11,59,21.00
2013,08,17,12,00,20.90
2013,08,17,12,01,20.90
2013,08,17,12,02,20.90
2013,08,17,12,03,20.90
2013,08,17,12,04,20.90
2013,08,17,12,05,21.00
2013,08,17,12,06,21.10
2013,08,17,12,07,21.10
2013,08,17,12,08,21.20
2013,08,17,12,09,21.20
2013,08,17,12,10,21.20
2013,08,17,12,11,21.20
2013,08,17,12,12,21.20
2013,08,17,12,13,21.10
2013,08,17,12,14,21.00
2013,08,17,12,15,20.90
2013,08,17,12,16,20.90
2013,08,17,12,17,20.90
2013,08,17,12,18,20.90
2013,08,17,12,19,20.90
2013,08,17,12,20,20.90
2013,08,17,12,21,20.90
2013,08,17,12,22,20.90
2013,08,17,12,23,20.80
2013,08,17,12,24,20.80
2013,08,17,12,25,20.70
2013,08,17,12,26,20.70
2013,08,17,12,27,20.70
2013,08,17,12,28,20.70
2013,08,17,12,29,20.70
2013,08,17,12,30,20.70
2013,08,17,12,31,20.60
2013,08,17,12,32,20.60
2013,08,17,12,33,20.60
2013,08,17,12,34,20.70
2013,08,17,12,35,20.70
2013,08,17,12,36,20.70
2013,08,17,12,37,20.70
2013,08,17,12,38,20.80
2013,08,17,12,39,20.80
2013,08,17,12,40,20.80
2013,08,17,12,41,20.80
2013,08,17,12,42,20.90
2013,08,17,12,43,20.90
2013,08,17,12,44,20.90
2013,08,17,12,45,20.90
2013,08,17,12,46,20.90
2013,08,17,12,47,20.90
2013,08,17,12,48,20.80
2013,08,17,12,49,20.80
2013,08,17,12,50,20.70
2013,08,17,12,51,20.70
2013,08,17,12,52,20.80
2013,08,17,12,53,20.80
2013,08,17,12,54,20.80
2013,08,17,12,55,20.70
2013,08,17,12,56,20.70
2013,08,17,12,57,20.70
2013,08,17,12,58,20.70
2013,08,17,12,59,20.60
2013,08,17,13,00,20.60
2013,08,17,13,01,20.50
2013,08,17,13,02,20.50
2013,08,17,13,03,20.40
2013,08,17,13,04,20.40
2013,08,17,13,05,20.40
2013,08,17,13,06,20.30
2013,08,17,13,07,20.30
2013,08,17,13,08,20.30
2013,08,17,13,09,20.30
2013,08,17,13,10,20.30
2013,08,17,13,11,20.40
2013,08,17,13,12,20.40
2013,08,17,13,13,20.40
2013,08,17,13,14,20.40
2013,08,17,13,15,20.40
2013,08,17,13,16,20.40
2013,08,17,13,17,20.40
2013,08,17,13,18,20.40
2013,08,17,13,19,20.40
2013,08,17,13,20,20.30
2013,08,17,13,21,20.30
2013,08,17,13,22,20.30
2013,08,17,13,23,20.20
2013,08,17,13,24,20.20
2013,08,17,13,25,20.20
2013,08,17,13,26,20.10
2013,08,17,13,27,20.10
2013,08,17,13,28,20.10
2013,08,17,13,29,20.10
2013,08,17,13,30,20.10
2013,08,17,13,31,20.10
2013,08,17,13,32,20.10
2013,08,17,13,33,20.10
2013,08,17,13,34,20.20
2013,08,17,13,35,20.20
2013,08,17,13,36,20.20
2013,08,17,13,37,20.20
2013,08,17,13,38,20.20
2013,08,17,13,39,20.20
2013,08,17,13,40,20.20
2013,08,17,13,41,20.20
2013,08,17,13,42,20.20
2013,08,17,13,43,20.20
2013,08,17,13,44,20.20
2013,08,17,13,45,20.20
2013,08,17,13,46,20.20
2013,08,17,13,47,20.20
2013,08,17,13,48,20.20
2013,08,17,13,49,20.20
2013,08,17,13,50,20.20
2013,08,17,13,51,20.20
2013,08,17,13,52,20.20
2013,08,17,13,53,20.20
2013,08,17,13,54,20.20
2013,08,17,13,55,20.20
2013,08,17,13,56,20.20
2013,08,17,13,57,20.20
2013,08,17,13,58,20.20
2013,08,17,13,59,20.20
2013,08,17,14,00,20.20
2013,08,17,14,01,20.20
2013,08,17,14,02,20.20
2013,08,17,14,03,20.20
2013,08,17,14,04,20.20
2013,08,17,14,05,20.20
2013,08,17,14,06,20.20
2013,08,17,14,07,20.20
2013,08,17,14,08,20.20
2013,08,17,14,09,20.20
2013,08,17,14,10,20.20
2013,08,17,14,11,20.20
2013,08,17,14,12,20.20
2013,08,17,14,13,20.20
2013,08,17,14,14,20.20
2013,08,17,14,15,20.20
2013,08,17,14,16,20.20
2013,08,17,14,17,20.20
2013,08,17,14,18,20.30
2013,08,17,14,19,20.30
2013,08,17,14,20,20.30
2013,08,17,14,21,20.30
2013,08,17,14,22,20.40
2013,08,17,14,23,20.40
2013,08,17,14,24,20.40
2013,08,17,14,25,20.50
2013,08,17,14,26,20.50
2013,08,17,14,27,20.60
2013,08,17,14,28,20.60
2013,08,17,14,29,20.60
2013,08,17,14,30,20.50
2013,08,17,14,31,20.50
2013,08,17,14,32,20.50
2013,08,17,14,33,20.50
2013,08,17,14,34,20.50
2013,08,17,14,35,20.40
2013,08,17,14,36,20.40
2013,08,17,14,37,20.40
2013,08,17,14,38,20.40
2013,08,17,14,39,20.40
2013,08,17,14,40,20.40
2013,08,17,14,41,20.40
2013,08,17,14,42,20.40
2013,08,17,14,43,20.40
2013,08,17,14,44,20.30
2013,08,17,14,45,20.30
2013,08,17,14,46,20.40
2013,08,17,14,47,20.40
2013,08,17,14,48,20.40
2013,08,17,14,49,20.40
2013,08,17,14,50,20.40
2013,08,17,14,51,20.40
2013,08,17,14,52,20.40
2013,08,17,14,53,20.40
2013,08,17,14,54,20.40
2013,08,17,14,55,20.40
2013,08,17,14,56,20.40
2013,08,17,14,57,20.40
2013,08,17,14,58,20.50
2013,08,17,14,59,20.40
2013,08,17,15,00,20.40
2013,08,17,15,01,20.40
2013,08,17,15,02,20.40
2013,08,17,15,03,20.40
2013,08,17,15,04,20.40
2013,08,17,15,05,20.40
2013,08,17,15,06,20.40
2013,08,17,15,07,20.50
2013,08,17,15,08,20.50
2013,08,17,15,09,20.40
2013,08,17,15,10,20.40
2013,08,17,15,11,20.40
2013,08,17,15,12,20.40
2013,08,17,15,13,20.40
2013,08,17,15,14,20.40
2013,08,17,15,15,20.40
2013,08,17,15,16,20.40
2013,08,17,15,17,20.40
2013,08,17,15,18,20.40
2013,08,17,15,19,20.40
2013,08,17,15,20,20.40
2013,08,17,15,21,20.40
2013,08,17,15,22,20.30
2013,08,17,15,23,20.30
2013,08,17,15,24,20.30
2013,08,17,15,25,20.30
2013,08,17,15,26,20.20
2013,08,17,15,27,20.30
2013,08,17,15,28,20.30
2013,08,17,15,29,20.30
2013,08,17,15,30,20.30
2013,08,17,15,31,20.30
2013,08,17,15,32,20.30
2013,08,17,15,33,20.40
2013,08,17,15,34,20.40
2013,08,17,15,35,20.40
2013,08,17,15,36,20.40
2013,08,17,15,37,20.50
2013,08,17,15,38,20.60
2013,08,17,15,39,20.60
2013,08,17,15,40,20.60
2013,08,17,15,41,20.60
2013,08,17,15,42,20.60
2013,08,17,15,43,20.60
2013,08,17,15,44,20.60
2013,08,17,15,45,20.50
2013,08,17,15,46,20.50
2013,08,17,15,47,20.40
2013,08,17,15,48,20.50
2013,08,17,15,49,20.50
2013,08,17,15,50,20.50
2013,08,17,15,51,20.50
2013,08,17,15,52,20.40
2013,08,17,15,53,20.40
2013,08,17,15,54,20.40
2013,08,17,15,55,20.40
2013,08,17,15,56,20.40
2013,08,17,15,57,20.40
2013,08,17,15,58,20.40
2013,08,17,15,59,20.40
2013,08,17,16,00,20.40
2013,08,17,16,01,20.40
2013,08,17,16,02,20.40
2013,08,17,16,03,20.40
2013,08,17,16,04,20.50
2013,08,17,16,05,20.50
2013,08,17,16,06,20.50
2013,08,17,16,07,20.40
2013,08,17,16,08,20.40
2013,08,17,16,09,20.50
2013,08,17,16,10,20.50
2013,08,17,16,11,20.60
2013,08,17,16,12,20.70
2013,08,17,16,13,20.70
2013,08,17,16,14,20.70
2013,08,17,16,15,20.80
2013,08,17,16,16,20.80
2013,08,17,16,17,20.80
2013,08,17,16,18,20.80
2013,08,17,16,19,20.70
2013,08,17,16,20,20.70
2013,08,17,16,21,20.70
2013,08,17,16,22,20.70
2013,08,17,16,23,20.70
2013,08,17,16,24,20.70
2013,08,17,16,25,20.70
2013,08,17,16,26,20.60
2013,08,17,16,27,20.60
2013,08,17,16,28,20.50
2013,08,17,16,29,20.50
2013,08,17,16,30,20.40
2013,08,17,16,31,20.40
2013,08,17,16,32,20.40
2013,08,17,16,33,20.30
2013,08,17,16,34,20.30
2013,08,17,16,35,20.30
2013,08,17,16,36,20.30
2013,08,17,16,37,20.30
2013,08,17,16,38,20.30
2013,08,17,16,39,20.20
2013,08,17,16,40,20.30
2013,08,17,16,41,20.30
2013,08,17,16,42,20.40
2013,08,17,16,43,20.40
2013,08,17,16,44,20.40
2013,08,17,16,45,20.40
2013,08,17,16,46,20.40
2013,08,17,16,47,20.30
2013,08,17,16,48,20.30
2013,08,17,16,49,20.30
2013,08,17,16,50,20.30
2013,08,17,16,51,20.30
2013,08,17,16,52,20.30
2013,08,17,16,53,20.30
2013,08,17,16,54,20.30
2013,08,17,16,55,20.30
2013,08,17,16,56,20.30
2013,08,17,16,57,20.30
2013,08,17,16,58,20.30
2013,08,17,16,59,20.30
2013,08,17,17,00,20.20
2013,08,17,17,01,20.20
2013,08,17,17,02,20.10
2013,08,17,17,03,20.20
2013,08,17,17,04,20.20
2013,08,17,17,05,20.20
2013,08,17,17,06,20.20
2013,08,17,17,07,20.20
2013,08,17,17,08,20.20
2013,08,17,17,09,20.10
2013,08,17,17,10,20.10
2013,08,17,17,11,20.00
2013,08,17,17,12,19.90
2013,08,17,17,13,19.90
2013,08,17,17,14,19.80
2013,08,17,17,15,19.80
2013,08,17,17,16,19.80
2013,08,17,17,17,19.80
2013,08,17,17,18,19.80
2013,08,17,17,19,19.90